Wind_Speed
11 11 11 12 12 12 12 12 12 13 13 13 13 13 13 13 13 13 13 13 13 13 13 14 14 14 13 13 13 13 13 13 13 13 13 13 13 13 14 14 15 15 15
12 12 12 12 12 12 12 13 13 13 13 12 12 12 12 12 13 13 13 13 13 13 13 14 14 14 14 14 14 14 14 14 14 14 13 13 14 13 14 14 14 14 15
12 12 12 12 12 13 13 13 14 13 12 12 12 12 12 12 12 13 13 13 13 13 14 14 15 15 15 15 14 14 14 14 14 14 14 14 14 13 13 12 12 13 14
12 13 13 13 13 13 13 14 14 13 13 13 12 12 13 13 13 13 13 13 14 14 14 15 15 15 15 16 15 15 15 15 14 14 14 14 14 13 13 12 12 13 12
13 13 14 14 14 14 14 14 14 14 14 14 13 13 13 13 13 14 14 14 15 15 15 15 16 15 16 16 16 16 15 15 15 15 15 14 14 13 13 12 12 12 13
13 13 14 14 14 14 14 14 14 14 14 14 14 14 14 14 14 15 15 15 15 16 16 17 17 17 17 17 17 17 16 16 16 16 15 15 14 14 14 13 12 12 13
14 14 13 14 14 14 14 14 15 15 15 15 15 15 15 15 15 15 15 16 16 16 16 17 17 17 17 17 17 17 17 17 17 17 17 16 15 15 14 13 13 13 13
13 13 13 13 14 14 15 15 15 15 15 15 15 15 16 16 16 16 16 16 16 16 17 17 18 18 18 19 18 18 18 17 18 18 17 17 16 16 16 15 14 14 14
13 13 13 14 14 14 15 15 15 15 15 15 15 15 16 16 17 17 17 17 17 17 17 18 19 19 19 19 19 19 19 19 19 18 18 18 17 17 17 16 16 15 14
14 14 14 14 15 15 15 16 16 16 16 16 16 17 17 17 18 18 18 18 18 18 18 19 19 19 19 19 19 20 20 20 20 19 19 19 19 19 18 17 17 16 15
15 15 15 15 16 16 16 16 16 16 16 16 17 17 17 17 18 18 19 19 19 19 19 20 20 20 21 21 21 21 21 21 21 21 21 20 20 20 19 19 18 17 17
16 16 16 16 16 17 17 17 17 17 17 17 17 17 18 18 18 19 19 19 19 20 20 21 21 22 22 22 22 22 22 22 22 22 22 21 21 21 20 19 19 19 18
17 17 17 17 17 17 18 18 17 17 18 18 18 18 18 19 19 19 20 20 20 21 21 22 22 23 23 22 23 23 23 23 23 23 24 23 22 22 21 20 20 19 19
18 18 18 18 18 19 19 19 19 19 19 20 20 20 20 20 21 20 21 21 21 21 22 23 23 24 24 24 24 24 24 24 24 23 23 24 24 23 22 22 21 21 21
19 20 20 20 20 20 20 20 20 20 21 21 21 21 21 21 22 22 22 22 22 22 22 23 23 24 24 24 24 24 24 24 25 25 25 24 24 24 24 24 23 22 22
21 21 21 22 21 21 20 20 21 21 22 22 22 22 22 22 23 23 23 23 23 23 22 22 22 23 23 23 23 24 24 24 25 25 24 24 24 25 25 25 24 24 23
22 22 22 22 22 23 23 22 22 22 22 23 23 23 23 24 24 24 24 24 24 24 23 23 22 22 22 22 23 24 24 23 23 24 24 24 24 25 26 26 25 24 24
23 23 23 23 23 23 24 24 24 24 24 24 24 24 24 24 24 24 24 24 24 24 23 23 23 22 22 22 22 22 23 23 23 23 23 23 23 24 25 26 25 25 25
24 24 24 24 25 25 25 25 25 25 25 25 25 25 25 25 25 24 24 24 24 23 23 23 23 23 22 22 22 22 22 23 23 22 22 22 22 23 23 24 24 24 24
25 25 25 25 25 26 26 26 26 26 26 26 26 26 26 26 26 26 25 25 25 25 24 23 23 22 22 22 22 22 22 23 23 23 23 23 23 23 23 23 23 24 24
26 25 25 26 26 26 26 27 27 27 27 26 26 26 26 26 26 25 25 24 25 25 24 22 22 23 23 22 23 23 23 23 24 24 24 24 24 24 25 24 24 25 24
27 27 27 27 27 27 28 27 27 26 26 26 26 26 26 26 25 25 25 25 25 24 24 24 23 23 23 23 24 24 24 25 25 25 25 25 25 24 25 25 25 26 26
27 27 27 28 28 28 28 27 27 27 27 26 26 26 26 26 26 26 26 26 25 25 25 26 25 25 24 25 25 25 25 25 25 26 26 26 25 25 25 26 27 27 27
26 26 26 26 27 27 27 26 26 26 26 26 26 26 26 26 27 27 26 26 27 27 27 26 26 27 26 26 26 26 26 26 26 27 27 27 27 28 28 28 28 28 29
26 26 26 26 26 25 25 26 26 25 25 25 26 25 25 25 26 26 26 27 27 27 27 27 27 27 28 28 28 27 27 27 27 27 27 27 28 28 28 29 29 29 30
26 26 26 25 25 25 25 26 26 26 26 25 26 26 26 26 26 27 27 28 28 29 29 28 28 28 29 29 29 29 28 28 28 28 28 29 28 29 28 29 30 30 30
Wind_Direction
274 275 276 276 273 271 270 272 272 272 274 274 271 268 266 264 260 257 257 258 259 256 255 253 251 253 255 256 256 255 256 258 261 262 265 263 261 261 259 258 257 253 249
270 272 276 277 276 274 272 272 272 272 272 272 271 269 266 262 260 259 258 258 257 255 254 253 250 253 256 256 255 255 253 254 258 261 263 262 261 261 261 262 254 247 243
270 273 274 275 277 275 274 272 271 272 271 270 268 266 265 262 261 260 258 257 256 255 254 253 252 251 254 255 253 255 253 254 258 260 260 262 261 261 263 262 256 249 247
271 272 273 274 277 276 276 274 273 272 270 269 266 265 264 262 261 260 258 257 257 256 253 253 255 254 253 253 252 254 254 255 257 258 260 262 262 261 260 258 256 256 255
271 272 272 273 275 275 275 275 275 273 271 269 267 265 263 264 263 262 261 260 259 257 256 255 255 256 256 255 254 255 256 257 257 258 259 261 261 259 257 256 255 255 255
272 272 272 274 275 274 274 275 277 274 270 269 267 265 265 265 264 263 262 262 262 260 258 257 257 257 257 256 255 255 256 258 258 257 257 259 259 257 255 254 254 255 255
273 273 274 274 274 275 274 273 275 277 272 270 268 266 265 265 265 263 263 263 262 261 259 258 257 256 255 256 257 256 258 258 257 256 256 257 257 254 253 253 253 256 256
278 276 274 275 275 276 276 277 276 277 275 273 272 267 264 264 264 264 264 264 263 261 259 259 258 256 255 256 257 259 260 258 255 255 255 255 255 252 250 250 251 254 254
279 278 276 277 278 278 278 278 277 277 274 273 273 270 266 264 262 263 264 265 265 263 261 261 259 258 257 256 257 257 258 257 254 253 252 252 253 253 250 251 252 254 254
277 277 278 279 279 278 279 281 279 277 274 273 273 271 268 266 265 264 264 264 264 264 263 262 261 259 257 257 258 259 259 258 254 253 253 251 251 252 252 252 252 253 255
277 276 277 279 279 278 279 281 279 277 275 273 273 273 269 267 267 266 266 265 265 265 264 262 261 261 260 259 260 260 261 260 257 256 254 254 250 250 251 251 251 252 253
278 278 278 279 279 279 280 279 278 276 274 273 272 273 271 269 267 267 266 267 267 266 266 265 264 263 262 260 259 259 260 258 257 255 253 253 250 250 251 250 250 250 252
279 278 279 280 280 280 280 278 277 276 273 273 272 272 272 270 269 269 268 268 268 268 266 265 265 264 263 261 259 258 260 259 256 254 250 250 250 251 248 247 249 250 252
277 278 280 281 282 280 279 278 277 277 274 273 272 271 270 269 269 269 268 269 270 270 268 267 267 267 264 263 260 259 259 258 254 253 251 249 248 249 247 249 250 251 252
277 278 280 281 282 280 278 279 279 279 276 274 273 271 270 269 268 268 269 270 271 272 272 270 267 267 266 263 261 259 258 257 255 254 254 253 249 247 250 251 251 250 251
278 278 279 280 280 279 278 279 279 280 278 275 272 271 270 269 268 269 271 272 272 272 271 270 269 267 265 262 261 259 259 257 256 254 254 254 252 250 250 250 250 251 249
279 280 280 280 279 279 278 278 279 279 278 276 273 272 271 270 269 269 270 271 271 272 272 270 271 268 264 261 260 259 258 257 256 254 254 253 252 250 250 250 250 250 249
280 279 280 279 278 278 277 277 277 279 277 276 274 273 272 271 271 270 270 270 271 270 269 269 270 268 263 260 260 260 259 257 255 254 255 254 253 251 249 248 247 248 249
280 280 279 277 278 279 278 278 278 279 276 275 274 273 273 272 271 269 269 269 269 269 268 268 267 266 262 261 262 261 259 259 256 253 253 253 254 253 250 246 246 247 249
280 281 280 279 279 280 279 278 279 279 277 275 273 272 272 271 270 269 269 268 267 267 267 266 265 265 263 262 263 262 260 260 257 254 254 253 254 253 252 250 248 247 248
282 282 280 280 280 280 279 278 280 278 277 274 273 270 269 270 269 268 267 267 268 266 263 263 266 265 263 262 263 262 262 261 259 257 256 255 255 252 251 251 250 249 249
283 281 279 280 280 280 279 278 279 277 277 274 272 270 268 268 266 267 266 265 264 262 261 264 266 264 263 263 263 262 262 262 260 257 255 254 254 252 250 251 252 251 251
284 281 281 279 279 279 278 277 278 277 277 275 273 272 269 268 267 267 265 262 261 262 265 263 263 263 263 263 262 261 262 262 261 259 255 253 252 252 251 251 253 252 252
284 284 283 282 280 279 278 276 277 278 278 277 274 272 269 269 268 267 265 263 264 265 264 264 263 263 264 264 263 261 262 264 263 260 257 255 254 252 253 253 254 252 252
283 283 284 282 280 279 278 277 278 279 279 279 275 272 269 269 269 269 266 264 264 264 262 264 265 264 264 263 264 262 263 264 263 262 258 257 256 254 254 254 254 253 252
282 282 282 281 281 280 279 279 279 280 279 278 275 271 271 271 272 270 268 266 265 264 263 264 265 264 263 263 262 261 262 263 262 262 260 260 257 256 254 254 254 254 253
Height
5852 5852 5851 5851 5850 5850 5849 5849 5848 5848 5847 5847 5846 5846 5846 5845 5845 5845 5845 5846 5846 5846 5846 5846 5846 5847 5847 5847 5847 5847 5848 5848 5848 5848 5848 5848 5848 5848 5847 5846 5846 5846 5847
5849 5849 5849 5848 5847 5847 5846 5846 5846 5845 5844 5844 5843 5843 5843 5842 5842 5842 5842 5842 5843 5843 5843 5843 5843 5843 5844 5844 5844 5844 5844 5845 5845 5846 5845 5845 5845 5845 5844 5842 5841 5841 5844
5846 5846 5846 5845 5844 5844 5843 5843 5842 5842 5841 5841 5840 5840 5840 5839 5839 5839 5839 5839 5839 5839 5840 5840 5840 5840 5840 5841 5841 5841 5841 5842 5842 5842 5842 5842 5842 5842 5841 5839 5838 5838 5841
5843 5843 5843 5842 5841 5841 5840 5840 5839 5839 5838 5838 5837 5837 5837 5836 5836 5836 5836 5836 5836 5836 5836 5836 5836 5836 5837 5837 5837 5838 5838 5838 5839 5839 5839 5839 5839 5839 5838 5837 5837 5838 5839
5840 5840 5839 5839 5838 5837 5837 5836 5836 5835 5835 5834 5834 5834 5834 5833 5833 5833 5832 5832 5832 5832 5832 5833 5833 5833 5833 5834 5834 5834 5835 5835 5835 5836 5836 5836 5836 5836 5836 5836 5836 5836 5837
5837 5836 5836 5835 5834 5834 5833 5833 5832 5832 5831 5831 5830 5830 5830 5830 5829 5829 5829 5829 5828 5828 5828 5829 5829 5829 5829 5830 5830 5830 5831 5831 5832 5832 5832 5833 5833 5833 5833 5833 5834 5834 5835
5833 5832 5832 5831 5831 5830 5830 5829 5829 5828 5828 5827 5827 5827 5826 5826 5826 5825 5825 5825 5825 5824 5824 5824 5824 5825 5825 5826 5826 5827 5827 5827 5828 5828 5829 5829 5829 5830 5830 5831 5831 5832 5832
5830 5829 5828 5828 5827 5826 5826 5825 5825 5824 5824 5823 5823 5823 5822 5822 5821 5821 5821 5821 5820 5820 5820 5820 5820 5820 5821 5822 5822 5822 5823 5823 5824 5824 5825 5825 5826 5826 5827 5828 5828 5829 5829
5826 5825 5825 5824 5823 5823 5822 5821 5821 5820 5820 5819 5819 5818 5818 5818 5817 5817 5817 5816 5816 5816 5815 5815 5815 5816 5816 5816 5817 5817 5818 5818 5819 5819 5820 5821 5821 5822 5823 5824 5825 5825 5826
5823 5822 5821 5820 5819 5819 5818 5817 5816 5816 5815 5815 5814 5813 5813 5812 5812 5812 5812 5811 5811 5811 5811 5810 5810 5811 5811 5811 5812 5812 5813 5813 5814 5815 5815 5816 5817 5818 5819 5820 5821 5822 5823
5819 5818 5817 5816 5815 5814 5814 5813 5812 5811 5810 5810 5809 5808 5807 5807 5806 5806 5806 5806 5806 5806 5805 5805 5805 5805 5805 5806 5806 5807 5807 5808 5808 5809 5810 5811 5812 5813 5814 5815 5817 5818 5819
5815 5814 5813 5812 5811 5810 5809 5808 5807 5806 5806 5805 5804 5803 5802 5802 5801 5801 5801 5801 5800 5800 5800 5800 5799 5799 5799 5800 5800 5801 5801 5802 5802 5803 5805 5806 5806 5808 5809 5811 5812 5813 5814
5811 5809 5808 5807 5806 5805 5804 5803 5802 5801 5800 5799 5799 5798 5797 5796 5796 5795 5795 5795 5795 5794 5794 5793 5793 5793 5793 5793 5793 5794 5795 5795 5796 5797 5798 5800 5801 5802 5804 5805 5807 5808 5810
5806 5805 5804 5802 5801 5800 5799 5798 5797 5796 5795 5794 5793 5792 5791 5791 5790 5790 5789 5789 5788 5788 5787 5787 5786 5786 5786 5786 5786 5787 5788 5789 5790 5790 5791 5793 5795 5797 5798 5800 5802 5803 5805
5801 5799 5798 5797 5796 5794 5793 5792 5791 5790 5789 5788 5787 5786 5786 5785 5784 5784 5783 5783 5783 5782 5781 5780 5780 5779 5779 5779 5779 5780 5781 5782 5783 5784 5785 5787 5789 5790 5792 5794 5796 5798 5799
5795 5794 5792 5791 5790 5789 5787 5786 5785 5784 5783 5782 5781 5780 5780 5779 5778 5778 5777 5776 5775 5775 5774 5773 5773 5772 5772 5772 5772 5773 5774 5775 5776 5777 5778 5780 5781 5783 5786 5788 5790 5792 5793
5789 5787 5786 5785 5783 5782 5781 5780 5779 5778 5776 5775 5774 5774 5773 5772 5771 5771 5770 5769 5768 5768 5767 5767 5766 5765 5765 5765 5766 5766 5767 5768 5769 5770 5772 5773 5775 5777 5779 5781 5783 5785 5787
5782 5781 5779 5778 5777 5776 5774 5773 5772 5771 5770 5769 5768 5767 5766 5765 5764 5763 5763 5762 5762 5761 5761 5760 5759 5759 5759 5759 5760 5760 5760 5761 5762 5764 5765 5766 5768 5770 5772 5774 5776 5779 5780
5775 5774 5772 5771 5770 5768 5767 5766 5765 5764 5762 5761 5760 5760 5759 5758 5757 5756 5755 5755 5754 5754 5753 5753 5753 5752 5752 5753 5753 5754 5754 5755 5756 5757 5759 5760 5762 5763 5765 5767 5769 5772 5774
5768 5766 5765 5763 5762 5760 5759 5758 5757 5756 5755 5753 5752 5752 5751 5750 5749 5748 5748 5747 5747 5746 5746 5746 5746 5746 5746 5747 5747 5747 5748 5749 5749 5751 5752 5753 5755 5756 5758 5760 5762 5765 5767
5760 5758 5757 5755 5754 5752 5751 5750 5749 5748 5746 5745 5744 5743 5742 5741 5741 5740 5740 5740 5739 5739 5739 5739 5739 5739 5740 5740 5741 5741 5742 5742 5743 5744 5745 5747 5747 5749 5750 5752 5755 5757 5759
5751 5749 5748 5747 5746 5744 5743 5742 5740 5739 5738 5737 5736 5735 5734 5734 5733 5733 5733 5732 5732 5732 5732 5733 5733 5733 5733 5733 5734 5734 5735 5735 5736 5737 5738 5739 5740 5741 5743 5745 5747 5749 5751
5743 5741 5739 5738 5737 5736 5734 5733 5732 5731 5730 5729 5728 5727 5726 5726 5725 5725 5725 5725 5725 5725 5725 5726 5726 5726 5726 5727 5727 5727 5727 5728 5728 5729 5730 5732 5733 5734 5735 5737 5739 5741 5743
5735 5733 5731 5730 5728 5727 5726 5725 5724 5722 5721 5720 5719 5719 5718 5718 5718 5717 5717 5717 5717 5717 5717 5718 5718 5718 5719 5719 5719 5719 5719 5720 5720 5721 5721 5723 5725 5726 5728 5729 5731 5733 5735
5727 5725 5723 5722 5720 5719 5718 5717 5716 5715 5713 5712 5711 5711 5710 5710 5710 5709 5709 5709 5709 5709 5709 5709 5709 5710 5710 5710 5711 5711 5711 5712 5712 5712 5713 5714 5716 5718 5719 5721 5722 5724 5725
5719 5717 5716 5714 5713 5712 5711 5710 5708 5707 5706 5705 5704 5704 5703 5702 5702 5701 5701 5701 5700 5700 5700 5700 5701 5701 5701 5701 5702 5702 5703 5703 5704 5704 5705 5706 5707 5709 5711 5712 5713 5714 5716